Flag for Germany Weather past 2 weeks in Rottenburg am Neckar, Baden-Württemberg, Germany

Now
47 °F

Overcast.


Feels Like: 47 °F
Forecast: 29 / 52 °F
Wind: 2 mph from Southwest

Location: Stuttgart-Echterdingen


UV Index: 3 (Moderate)

Visibility: 22 mi


Pressure: 29.87 "Hg

Humidity: 77%

Dew point: 40 °F

Location of Rottenburg am NeckarLocation

Historic Weather in Rottenburg am Neckar

°F

Rottenburg am Neckar temperature yesterday

Maximum temperature yesterday: 59 °F (at 6:00 PM)
Minimum temperature yesterday: 33 °F (at 6:00 AM)
Average temperature yesterday: 46 °F

Past Weeks' High & Low Weather Summary

 TemperatureHumidityPressure
High70 °F (Apr 7, 4:00 PM)93% (Apr 6, 1:00 AM)30.42 "Hg (Apr 6, 1:00 AM)
Low33 °F (Apr 17, 6:00 AM)25% (Apr 17, 5:00 PM)29.62 "Hg (Apr 3, 6:00 PM)
Average52 °F62%30.07 "Hg
* Reported Apr 3 9:00 AM — Apr 18 9:00 AM, Rottenburg am Neckar, Weather by CustomWeather, © 2014

Note: Actual official high and low records may vary slightly from our data, if they occured in-between our weather recording intervals... More about our weather records

Advertising

Historic Weather Conditions — Data for Previous 24 hours

 ConditionsComfort  
Time TempWeatherWind HumidityBarometerVisibility
9:00 AM
Apr 18
47 °FOvercast.2 mph77%29.87 "Hg25 mi
8:00 AM48 °FLight rain. Overcast.2 mph68%29.88 "Hg16 mi
7:00 AM46 °FLight rain. Overcast.1 mph71%29.88 "Hg22 mi
6:00 AM46 °FLight rain. Overcast.1 mph61%29.89 "Hg25 mi
5:00 AM43 °FOvercast.1 mph66%29.91 "Hg31 mi
4:00 AM44 °FOvercast.1 mph64%29.93 "Hg31 mi
3:00 AM45 °FPassing clouds.1 mph58%29.94 "Hg31 mi
2:00 AM41 °FPassing clouds.1 mph58%29.97 "Hg31 mi
6:00 PM
Apr 17
59 °FPartly sunny.2 mph25%30.03 "Hg43 mi
5:00 PM59 °FPartly sunny.2 mph25%30.05 "Hg43 mi
4:00 PM58 °FScattered clouds.3 mph26%30.09 "Hg47 mi
3:00 PM57 °FPassing clouds.2 mph29%30.13 "Hg47 mi
2:00 PM55 °FPassing clouds.3 mph27%30.16 "Hg47 mi
1:00 PM54 °FPassing clouds.5 mph30%30.20 "Hg47 mi
12:00 PM52 °FPassing clouds.3 mph34%30.24 "Hg43 mi
11:00 AM49 °FPassing clouds.5 mph41%30.26 "Hg43 mi
10:00 AM46 °FPassing clouds.3 mph57%30.28 "Hg37 mi
Weather by CustomWeather, © 2014

See weather overview